{"data":{"norad_id":62686,"epoch":"2026-09-22T17:51:10.260864Z","epoch_age_seconds":125670,"freshness":"FRESH","line1":"1 62686U 25009CF  26265.74386876  .00001945  00000+0  89584-4 0  9990","line2":"2 62686  97.3908 342.3338 0005889  11.1227 349.0138 15.21469345 93523","mean_motion":15.21469345,"eccentricity":0.0005889,"inclination_deg":97.3908,"raan_deg":342.3338,"arg_perigee_deg":11.1227,"mean_anomaly_deg":349.0138,"bstar":8.9584e-5,"rev_number":9352,"period_min":94.645350872975,"perigee_km":497.35644415852,"apogee_km":505.45917203349,"semimajor_km":6879.544808096,"source":"CELESTRAK","updated_at":"2026-09-23T09:00:21.549999Z"}}